YBTLYBMA

Guest
Details From YBTL - Townsville Intl
To YBMA - Mount Isa
Flight Number -
Tags generated
Created
Modified
Stats Distance 419 nm / 777 km
Max Altitude 34,000 ft / 10,363 m
Waypoints 5
Social Downloads 3
Likes 0
Share VATSIM

Download

Looking for another format? Having issues loading an existing format? Contact us
Advertisement - Login to hide

Notes

Basic altitude profile: - Ascent Rate: 2500ft/min - Ascent Speed: 250kts - Cruise Altitude: 35000ft - Cruise Speed: 420kts - Descent Rate: 1500ft/min - Descent Speed: 250kts

Route

YBTL WISKA J184 PENAR YBMA

ID Type Via Altitude Latitude Longitude Leg Dist Tot Dist Heading (true) Name
O YBTL APT - 0 ft / 0 m -19.25135˚ 146.76502˚ - 0 nm - Townsville Intl
WISKA FIX - 32,200 ft / 9,815 m -19.57556˚ 145.20833˚ 90 nm 90 nm 257° / 258° -
RUSSO FIX J184 (AWY-HI) 34,000 ft / 10,363 m -19.98306˚ 143.19028˚ 116 nm 206 nm 258° / 258° -
PENAR FIX J184 (AWY-HI) 20,300 ft / 6,187 m -20.35444˚ 141.23222˚ 112 nm 319 nm 258° / 259° -
O YBMA APT - 0 ft / 0 m -20.66637˚ 139.48844˚ 99 nm 419 nm 259° / 259° Mount Isa

Altitude Profile

Advertisement - Login to hide

Weather


0- 5 10 15 20 25 30 35+ Temperature / ° C

Clouds and Precipitation
Forecast for 2018-05-23 18:00 UTC. Updated 3 hours ago

Ground ~20,000 ft ~40,000 ft Winds

YBTL

Details ICAO YBTL (TSV)
Name Townsville Intl
Region Australia
Timezone Australia/Brisbane (UTC+10.0)
Stats Elevation 18 ft / 5 m (AMSL)
Location -19.251349° 146.765017°
Runways 2
Magnetic Variation 7.372° E

METAR

YBTL 232000Z 11004KT CAVOK 16/14 Q1017

Decode

TAF

TAF YBTL 231707Z 2318/2418 30005KT 9999 FEW040 FM240000 12010KT 9999 SCT045 FM240300 07014KT 9999 SCT040 FM240900 13007KT 9999 SCT035

Decode

Departure Runways

ID Width Length Bearing (true) Bearing (mag) Surface Threshold Offset Overrun Length
01 148 ft / 45 m 8,035 ft / 2,449 m 24.00° 16.63° Asphalt 0 ft / 0 m 0 ft / 0 m
07 98 ft / 30 m 3,617 ft / 1,102 m 73.84° 66.47° Concrete 0 ft / 0 m 0 ft / 0 m
19 148 ft / 45 m 8,035 ft / 2,449 m 204.00° 196.63° Asphalt 0 ft / 0 m 0 ft / 0 m
25 98 ft / 30 m 3,617 ft / 1,102 m 253.84° 246.47° Concrete 0 ft / 0 m 0 ft / 0 m

YBMA

Details ICAO YBMA (ISA)
Name Mount Isa
Region Australia
Timezone Australia/Brisbane (UTC+10.0)
Stats Elevation 1,121 ft / 342 m (AMSL)
Location -20.666369° 139.488443°
Runways 1
Magnetic Variation 5.671° E

METAR

YBMA 232000Z AUTO 09008KT 9999 // NCD 19/M00 Q1016

Decode

TAF

Not found

Destination Runways

ID Width Length Bearing (true) Bearing (mag) Surface Threshold Offset Overrun Length
16 148 ft / 45 m 8,859 ft / 2,700 m 167.80° 162.13° Asphalt 210 ft / 64 m 79 ft / 24 m
34 148 ft / 45 m 8,859 ft / 2,700 m 347.80° 342.13° Asphalt 213 ft / 65 m 49 ft / 15 m

Popular Alternatives